GPS BIII-1 (43873 NORAD) Tracking and Keplerian Element Data

This shows tracking and keplerian element data for the satellite.

Feedback or suggestion? Click here.




ElementValue
Catalog43873
NameGPS BIII-1
Epoch Orbit4507
Epoch Day34.46175417
Epoch Year2025
RAAN111.8854
Inclination55.3966
Eccentricity0.0033023
Argument of Perigee195.6873
Mean Anonmoly183.2239
Mean Motion2.00564158
Decay Rate-6E-08
L11 43873U 18109A 25034.46175417 -.00000006 00000+0 00000+0 0 9998
L22 43873 55.3966 111.8854 0033023 195.6873 183.2239 2.00564158 45074



Live tracking and technical data element details for GPS BIII-1 (NORAD 43873). GPS BIII-1 can be tracked NOW for your location showing map with azimuth and elevation plus other details from your city location.







IsCatalogInMostPopularTable: catalog: 43873, numindb: 1575
Update: records affected: 1



GetName: 43873 GPS BIII-1

Hit Count: updated at: Thu, 19 Jun 2025 10:18:07 GMT